| time (UTC) | temp F | wind direction | speed knots | gust knots | rain 1hr in | rain 24hr in | rain mn in | humidity % | barometer mb |
| 20260504205415 | 72 | 48 | 9.6 | 12.2 | 0.00 | 0.00 | 0.00 | 28 | 1003.5 |
| 20260504204913 | 72 | 27 | 8.7 | 11.3 | 0.00 | 0.00 | 0.00 | 28 | 1003.5 |
| 20260504204411 | 73 | 1 | 12.2 | 13.9 | 0.00 | 0.00 | 0.00 | 27 | 1003.6 |
| 20260504203911 | 73 | 305 | 6.1 | 7.0 | 0.00 | 0.00 | 0.00 | 29 | 1003.6 |
| 20260504203408 | 73 | 324 | 11.3 | 18.2 | 0.00 | 0.00 | 0.00 | 28 | 1003.3 |
| 20260504202903 | 73 | 351 | 9.6 | 13.0 | 0.00 | 0.00 | 0.00 | 29 | 1003.5 |
| 20260504202400 | 73 | 32 | 7.0 | 8.7 | 0.00 | 0.00 | 0.00 | 29 | 1003.3 |
| 20260504201856 | 73 | 37 | 11.3 | 15.6 | 0.00 | 0.00 | 0.00 | 30 | 1003.4 |
| 20260504201354 | 73 | 355 | 12.2 | 13.9 | 0.00 | 0.00 | 0.00 | 29 | 1003.2 |
| 20260504200851 | 73 | 342 | 6.1 | 9.6 | 0.00 | 0.00 | 0.00 | 29 | 1003.4 |
| 20260504200348 | 73 | 345 | 8.7 | 12.2 | 0.00 | 0.00 | 0.00 | 29 | 1003.1 |
| 20260504195845 | 74 | 20 | 7.8 | 9.6 | 0.00 | 0.00 | 0.00 | 29 | 1003.2 |
| 20260504195340 | 73 | 9 | 7.8 | 9.6 | 0.00 | 0.00 | 0.00 | 29 | 1003.1 |
| 20260504194837 | 73 | 17 | 9.6 | 12.2 | 0.00 | 0.00 | 0.00 | 29 | 1003.1 |
| 20260504194333 | 74 | 355 | 6.1 | 7.0 | 0.00 | 0.00 | 0.00 | 29 | 1003.0 |
| 20260504193830 | 75 | 97 | 6.1 | 8.7 | 0.00 | 0.00 | 0.00 | 29 | 1002.8 |
| 20260504193327 | 75 | 333 | 9.6 | 13.0 | 0.00 | 0.00 | 0.00 | 30 | 1002.9 |
| 20260504192826 | 74 | 38 | 7.8 | 8.7 | 0.00 | 0.00 | 0.00 | 30 | 1002.9 |
| 20260504192323 | 74 | 50 | 12.2 | 15.6 | 0.00 | 0.00 | 0.00 | 30 | 1002.6 |
| 20260504191822 | 75 | 346 | 6.1 | 7.0 | 0.00 | 0.00 | 0.00 | 30 | 1002.8 |
| 20260504191318 | 74 | 45 | 7.0 | 8.7 | 0.00 | 0.00 | 0.00 | 31 | 1002.8 |
| 20260504190814 | 74 | 14 | 7.8 | 8.7 | 0.00 | 0.00 | 0.00 | 31 | 1002.8 |
| 20260504190310 | 74 | 318 | 8.7 | 11.3 | 0.00 | 0.00 | 0.00 | 31 | 1002.8 |
| 20260504185807 | 74 | 41 | 5.2 | 7.0 | 0.00 | 0.00 | 0.00 | 31 | 1002.8 |
| 20260504185304 | 74 | 32 | 8.7 | 11.3 | 0.00 | 0.00 | 0.00 | 30 | 1002.7 |
| 20260504184800 | 74 | 353 | 4.3 | 7.0 | 0.00 | 0.00 | 0.00 | 32 | 1002.6 |
| 20260504184255 | 75 | 0 | 9.6 | 13.0 | 0.00 | 0.00 | 0.00 | 30 | 1002.7 |
| 20260504183752 | 74 | 12 | 7.8 | 9.6 | 0.00 | 0.00 | 0.00 | 31 | 1002.7 |
| 20260504183249 | 75 | 10 | 7.8 | 9.6 | 0.00 | 0.00 | 0.00 | 33 | 1002.7 |
| 20260504182747 | 74 | 343 | 3.5 | 5.2 | 0.00 | 0.00 | 0.00 | 34 | 1002.8 |
| 20260504182244 | 73 | 345 | 6.1 | 7.0 | 0.00 | 0.00 | 0.00 | 35 | 1002.5 |
| 20260504181741 | 74 | 53 | 7.0 | 11.3 | 0.00 | 0.00 | 0.00 | 34 | 1002.6 |
| 20260504181238 | 74 | 180 | 5.2 | 7.0 | 0.00 | 0.00 | 0.00 | 35 | 1002.5 |
| 20260504180738 | 73 | 332 | 9.6 | 11.3 | 0.00 | 0.00 | 0.00 | 34 | 1002.4 |
| 20260504180236 | 74 | 38 | 7.0 | 9.6 | 0.00 | 0.00 | 0.00 | 38 | 1002.5 |
| 20260504175733 | 74 | 339 | 4.3 | 5.2 | 0.00 | 0.00 | 0.00 | 38 | 1002.6 |
| 20260504175229 | 73 | 57 | 2.6 | 4.3 | 0.00 | 0.00 | 0.00 | 39 | 1002.4 |
| 20260504174728 | 74 | 20 | 4.3 | 6.1 | 0.00 | 0.00 | 0.00 | 40 | 1002.3 |
| 20260504174225 | 73 | 12 | 5.2 | 6.1 | 0.00 | 0.00 | 0.00 | 40 | 1002.3 |
| 20260504173721 | 73 | 359 | 7.8 | 9.6 | 0.00 | 0.00 | 0.00 | 39 | 1002.2 |
| 20260504173219 | 73 | 324 | 6.1 | 7.8 | 0.00 | 0.00 | 0.00 | 42 | 1002.4 |
| 20260504172716 | 72 | 16 | 8.7 | 9.6 | 0.00 | 0.00 | 0.00 | 41 | 1002.5 |
| 20260504172212 | 73 | 330 | 4.3 | 5.2 | 0.00 | 0.00 | 0.00 | 42 | 1002.4 |
| 20260504171708 | 73 | 336 | 5.2 | 7.0 | 0.00 | 0.00 | 0.00 | 42 | 1002.3 |
| 20260504171205 | 72 | 330 | 4.3 | 7.0 | 0.00 | 0.00 | 0.00 | 42 | 1002.4 |
| 20260504170701 | 72 | 357 | 4.3 | 5.2 | 0.00 | 0.00 | 0.00 | 44 | 1002.4 |
| 20260504170159 | 72 | 52 | 7.0 | 8.7 | 0.00 | 0.00 | 0.00 | 43 | 1002.5 |
| 20260504160118 | 74 | 343 | 7.0 | 7.8 | 0.00 | 0.00 | 0.00 | 34 | 1001.3 |
| 20260504151045 | 74 | 322 | 9.6 | 9.6 | 0.00 | 0.00 | 0.00 | 34 | 1001.1 |
| 20260504150543 | 74 | 298 | 13.0 | 14.8 | 0.00 | 0.00 | 0.00 | 34 | 1001.4 |
| 20260504141009 | 68 | 234 | 3.5 | 4.3 | 0.00 | 0.00 | 0.00 | 40 | 1001.6 |
| 20260504140505 | 68 | 223 | 2.6 | 2.6 | 0.00 | 0.00 | 0.00 | 41 | 1001.4 |
| 20260504130430 | 59 | 170 | 0.0 | 0.9 | 0.00 | 0.00 | 0.00 | 55 | 1002.3 |
| 20260504110317 | 49 | 182 | 0.0 | 0.0 | 0.00 | 0.00 | 0.00 | 71 | 1002.0 |
| 20260504100235 | 50 | 182 | 0.0 | 0.0 | 0.00 | 0.00 | 0.00 | 67 | 1002.5 |
| 20260504081627 | 51 | 183 | 0.0 | 0.0 | 0.00 | 0.00 | 0.00 | 63 | 1002.8 |
| 20260504081123 | 52 | 183 | 0.0 | 0.0 | 0.00 | 0.00 | 0.00 | 61 | 1003.1 |
| 20260504080620 | 52 | 183 | 0.9 | 0.9 | 0.00 | 0.00 | 0.00 | 60 | 1003.2 |
| 20260504080116 | 52 | 183 | 0.0 | 0.0 | 0.00 | 0.00 | 0.00 | 60 | 1003.2 |
| 20260504050433 | 53 | 157 | 0.9 | 0.9 | 0.00 | 0.00 | 0.00 | 58 | 1005.9 |
| 20260504045930 | 55 | 156 | 0.0 | 0.0 | 0.00 | 0.00 | 0.00 | 53 | 1006.0 |
| 20260504045426 | 53 | 156 | 0.0 | 0.0 | 0.00 | 0.00 | 0.00 | 55 | 1005.8 |
| 20260504044922 | 54 | 156 | 0.0 | 0.0 | 0.00 | 0.00 | 0.00 | 56 | 1005.9 |
| 20260504044420 | 55 | 156 | 0.0 | 0.0 | 0.00 | 0.00 | 0.00 | 53 | 1006.0 |
| 20260504043917 | 55 | 156 | 0.0 | 0.0 | 0.00 | 0.00 | 0.00 | 53 | 1006.0 |
| 20260504043414 | 54 | 156 | 0.0 | 0.0 | 0.00 | 0.00 | 0.00 | 51 | 1006.2 |
| 20260504042911 | 55 | 156 | 0.0 | 0.0 | 0.00 | 0.00 | 0.00 | 52 | 1006.1 |
| 20260504042408 | 55 | 156 | 0.0 | 0.0 | 0.00 | 0.00 | 0.00 | 54 | 1006.3 |
| 20260504041904 | 55 | 156 | 0.0 | 0.0 | 0.00 | 0.00 | 0.00 | 49 | 1006.5 |
| 20260504041400 | 55 | 156 | 0.9 | 0.9 | 0.00 | 0.00 | 0.00 | 50 | 1006.4 |
| 20260504040856 | 55 | 156 | 0.9 | 1.7 | 0.00 | 0.00 | 0.00 | 48 | 1006.3 |
| 20260504040354 | 55 | 158 | 0.9 | 0.9 | 0.00 | 0.00 | 0.00 | 55 | 1006.6 |
| 20260504035849 | 55 | 170 | 2.6 | 2.6 | 0.00 | 0.00 | 0.00 | 54 | 1006.5 |
| 20260504035348 | 56 | 151 | 0.9 | 0.9 | 0.00 | 0.00 | 0.00 | 53 | 1006.4 |
| 20260504034844 | 58 | 150 | 0.0 | 0.0 | 0.00 | 0.00 | 0.00 | 52 | 1006.4 |
| 20260504034342 | 58 | 150 | 0.0 | 0.0 | 0.00 | 0.00 | 0.00 | 51 | 1006.5 |
| 20260504033838 | 58 | 150 | 0.0 | 0.0 | 0.00 | 0.00 | 0.00 | 49 | 1006.8 |
| 20260504033337 | 58 | 150 | 0.0 | 0.0 | 0.00 | 0.00 | 0.00 | 49 | 1006.9 |
| 20260504032833 | 58 | 150 | 0.9 | 0.9 | 0.00 | 0.00 | 0.00 | 52 | 1006.7 |
| 20260504032330 | 60 | 150 | 0.9 | 1.7 | 0.00 | 0.00 | 0.00 | 46 | 1006.8 |
| 20260504031827 | 60 | 157 | 0.9 | 1.7 | 0.00 | 0.00 | 0.00 | 47 | 1006.9 |
| 20260504031324 | 61 | 186 | 0.0 | 0.0 | 0.00 | 0.00 | 0.00 | 45 | 1007.0 |
| 20260504030820 | 62 | 191 | 0.0 | 0.0 | 0.00 | 0.00 | 0.00 | 40 | 1006.8 |
| 20260504030318 | 62 | 192 | 0.9 | 0.9 | 0.00 | 0.00 | 0.00 | 39 | 1007.0 |
| 20260504025814 | 61 | 198 | 0.9 | 0.9 | 0.00 | 0.00 | 0.00 | 40 | 1007.0 |
| 20260504025311 | 61 | 198 | 0.0 | 0.0 | 0.00 | 0.00 | 0.00 | 45 | 1006.9 |
| 20260504024807 | 60 | 198 | 0.9 | 0.9 | 0.00 | 0.00 | 0.00 | 46 | 1006.9 |
| 20260504024304 | 61 | 199 | 0.0 | 0.0 | 0.00 | 0.00 | 0.00 | 44 | 1006.9 |
| 20260504023800 | 62 | 200 | 0.0 | 0.0 | 0.00 | 0.00 | 0.00 | 41 | 1006.8 |
| 20260504023257 | 62 | 200 | 0.0 | 0.0 | 0.00 | 0.00 | 0.00 | 41 | 1006.9 |
| 20260504022753 | 63 | 200 | 0.0 | 0.0 | 0.00 | 0.00 | 0.00 | 41 | 1006.9 |
| 20260504022249 | 63 | 200 | 0.0 | 0.0 | 0.00 | 0.00 | 0.00 | 40 | 1007.1 |
| 20260504021746 | 63 | 200 | 0.0 | 0.0 | 0.00 | 0.00 | 0.00 | 42 | 1007.1 |
| 20260504021244 | 63 | 204 | 0.0 | 0.0 | 0.00 | 0.00 | 0.00 | 39 | 1007.1 |
| 20260504020741 | 64 | 204 | 0.0 | 0.0 | 0.00 | 0.00 | 0.00 | 41 | 1007.2 |
| 20260504020237 | 64 | 204 | 0.0 | 0.0 | 0.00 | 0.00 | 0.00 | 39 | 1007.2 |
| 20260504015733 | 65 | 204 | 0.0 | 0.0 | 0.00 | 0.00 | 0.00 | 37 | 1007.1 |
| 20260504015230 | 65 | 204 | 0.0 | 0.0 | 0.00 | 0.00 | 0.00 | 39 | 1007.1 |
| 20260504014726 | 66 | 204 | 0.0 | 0.0 | 0.00 | 0.00 | 0.00 | 37 | 1007.2 |
| 20260504014223 | 66 | 204 | 0.0 | 0.0 | 0.00 | 0.00 | 0.00 | 36 | 1007.2 |
| 20260504013720 | 66 | 205 | 0.0 | 0.0 | 0.00 | 0.00 | 0.00 | 36 | 1007.4 |
| 20260504013218 | 67 | 206 | 0.0 | 0.0 | 0.00 | 0.00 | 0.00 | 35 | 1007.4 |
| 20260504012714 | 68 | 207 | 0.0 | 0.0 | 0.00 | 0.00 | 0.00 | 34 | 1007.4 |
| 20260504012212 | 69 | 255 | 0.0 | 0.0 | 0.00 | 0.00 | 0.00 | 34 | 1007.3 |
| 20260504011709 | 70 | 259 | 0.0 | 0.0 | 0.00 | 0.00 | 0.00 | 33 | 1007.4 |
| 20260504011205 | 70 | 259 | 0.0 | 0.0 | 0.00 | 0.00 | 0.00 | 31 | 1007.5 |
| 20260504010701 | 71 | 260 | 0.9 | 0.9 | 0.00 | 0.00 | 0.00 | 30 | 1007.8 |
| 20260504010157 | 72 | 260 | 0.0 | 0.0 | 0.00 | 0.00 | 0.00 | 30 | 1007.5 |
| 20260504005654 | 73 | 261 | 0.0 | 0.0 | 0.00 | 0.00 | 0.00 | 30 | 1007.6 |
| 20260504005151 | 73 | 275 | 1.7 | 1.7 | 0.00 | 0.00 | 0.00 | 29 | 1007.6 |
| 20260504004649 | 73 | 312 | 3.5 | 4.3 | 0.00 | 0.00 | 0.00 | 29 | 1007.8 |
| 20260504004146 | 73 | 289 | 1.7 | 2.6 | 0.00 | 0.00 | 0.00 | 28 | 1007.6 |
| 20260504003642 | 73 | 340 | 0.9 | 1.7 | 0.00 | 0.00 | 0.00 | 29 | 1008.1 |
| 20260504003139 | 73 | 314 | 1.7 | 2.6 | 0.00 | 0.00 | 0.00 | 29 | 1007.8 |
| 20260504002636 | 74 | 270 | 3.5 | 4.3 | 0.00 | 0.00 | 0.00 | 28 | 1008.1 |
| 20260504002133 | 74 | 328 | 4.3 | 6.1 | 0.00 | 0.00 | 0.00 | 27 | 1008.2 |
| 20260504001631 | 74 | 353 | 3.5 | 4.3 | 0.00 | 0.00 | 0.00 | 28 | 1007.9 |
| 20260504001127 | 74 | 284 | 4.3 | 5.2 | 0.00 | 0.00 | 0.00 | 27 | 1007.8 |
| 20260504000624 | 74 | 278 | 4.3 | 5.2 | 0.00 | 0.00 | 0.00 | 28 | 1008.1 |
| 20260504000121 | 74 | 290 | 4.3 | 5.2 | 0.00 | 0.00 | 0.00 | 28 | 1008.1 |
| 20260503235620 | 74 | 274 | 5.2 | 6.1 | 0.00 | 0.00 | 0.00 | 28 | 1007.8 |
| 20260503235116 | 74 | 314 | 6.1 | 7.8 | 0.00 | 0.00 | 0.00 | 27 | 1007.9 |
| 20260503234614 | 75 | 287 | 8.7 | 12.2 | 0.00 | 0.00 | 0.00 | 27 | 1008.2 |
| 20260503234112 | 75 | 280 | 4.3 | 4.3 | 0.00 | 0.00 | 0.00 | 28 | 1008.2 |
| 20260503233609 | 75 | 354 | 4.3 | 5.2 | 0.00 | 0.00 | 0.00 | 27 | 1008.2 |
| 20260503233059 | 75 | 274 | 4.3 | 5.2 | 0.00 | 0.00 | 0.00 | 27 | 1008.3 |
| 20260503232556 | 75 | 291 | 4.3 | 4.3 | 0.00 | 0.00 | 0.00 | 27 | 1008.1 |
| 20260503232053 | 75 | 306 | 5.2 | 6.1 | 0.00 | 0.00 | 0.00 | 27 | 1008.2 |
| 20260503231551 | 75 | 348 | 4.3 | 6.1 | 0.00 | 0.00 | 0.00 | 27 | 1008.1 |
| 20260503231048 | 75 | 31 | 2.6 | 4.3 | 0.00 | 0.00 | 0.00 | 28 | 1007.9 |
| 20260503230544 | 75 | 331 | 5.2 | 7.0 | 0.00 | 0.00 | 0.00 | 27 | 1008.2 |
| 20260503230042 | 75 | 327 | 7.0 | 7.8 | 0.00 | 0.00 | 0.00 | 27 | 1008.2 |
| 20260503225538 | 75 | 322 | 6.1 | 7.0 | 0.00 | 0.00 | 0.00 | 27 | 1008.2 |
| 20260503225039 | 75 | 14 | 2.6 | 5.2 | 0.00 | 0.00 | 0.00 | 29 | 1008.4 |
| 20260503224537 | 75 | 348 | 7.0 | 8.7 | 0.00 | 0.00 | 0.00 | 28 | 1008.4 |
| 20260503224035 | 75 | 295 | 5.2 | 6.1 | 0.00 | 0.00 | 0.00 | 27 | 1008.2 |
| 20260503223532 | 75 | 262 | 2.6 | 2.6 | 0.00 | 0.00 | 0.00 | 27 | 1008.3 |
| 20260503223027 | 75 | 8 | 2.6 | 2.6 | 0.00 | 0.00 | 0.00 | 27 | 1008.4 |
| 20260503222525 | 75 | 230 | 1.7 | 1.7 | 0.00 | 0.00 | 0.00 | 28 | 1008.4 |
| 20260503222023 | 75 | 304 | 3.5 | 4.3 | 0.00 | 0.00 | 0.00 | 29 | 1008.5 |
| 20260503221521 | 75 | 325 | 3.5 | 4.3 | 0.00 | 0.00 | 0.00 | 28 | 1008.5 |
| 20260503221019 | 75 | 290 | 7.0 | 8.7 | 0.00 | 0.00 | 0.00 | 28 | 1008.7 |
| 20260503220514 | 75 | 346 | 9.6 | 12.2 | 0.00 | 0.00 | 0.00 | 28 | 1008.8 |
| 20260503220011 | 75 | 279 | 8.7 | 9.6 | 0.00 | 0.00 | 0.00 | 26 | 1008.7 |
| 20260503215508 | 75 | 301 | 2.6 | 2.6 | 0.00 | 0.00 | 0.00 | 28 | 1008.8 |
| 20260503215005 | 75 | 312 | 4.3 | 6.1 | 0.00 | 0.00 | 0.00 | 29 | 1008.7 |
| 20260503214504 | 75 | 317 | 4.3 | 7.0 | 0.00 | 0.00 | 0.00 | 29 | 1008.8 |
| 20260503214000 | 75 | 354 | 6.1 | 7.8 | 0.00 | 0.00 | 0.00 | 28 | 1008.7 |
| 20260503213459 | 75 | 331 | 3.5 | 4.3 | 0.00 | 0.00 | 0.00 | 27 | 1008.9 |
| 20260503212954 | 75 | 326 | 6.1 | 7.0 | 0.00 | 0.00 | 0.00 | 26 | 1008.7 |
| 20260503212452 | 74 | 347 | 6.1 | 7.0 | 0.00 | 0.00 | 0.00 | 28 | 1008.9 |
| 20260503211949 | 75 | 327 | 3.5 | 4.3 | 0.00 | 0.00 | 0.00 | 29 | 1008.9 |
| 20260503211447 | 75 | 28 | 10.4 | 13.0 | 0.00 | 0.00 | 0.00 | 29 | 1008.8 |
| 20260503210942 | 75 | 324 | 6.1 | 7.0 | 0.00 | 0.00 | 0.00 | 28 | 1008.9 |
| 20260503210439 | 75 | 292 | 1.7 | 1.7 | 0.00 | 0.00 | 0.00 | 28 | 1009.0 |
| 20260503205934 | 75 | 330 | 6.1 | 7.8 | 0.00 | 0.00 | 0.00 | 28 | 1009.0 |